{"data":{"norad_id":65835,"epoch":"2026-09-20T06:43:17.679936Z","epoch_age_seconds":125077,"freshness":"FRESH","line1":"1 65835U 25221N   26263.28006574  .00012372  00000+0  37664-3 0  9993","line2":"2 65835  53.1580 262.5404 0002724  97.7312 262.4000 15.34405324 54552","mean_motion":15.34405324,"eccentricity":0.0002724,"inclination_deg":53.158,"raan_deg":262.5404,"arg_perigee_deg":97.7312,"mean_anomaly_deg":262.4,"bstar":0.00037664,"rev_number":5455,"period_min":93.847432453252,"perigee_km":460.8239756319,"apogee_km":464.55085677385,"semimajor_km":6840.8244162029,"source":"CELESTRAK","updated_at":"2026-09-21T09:00:35.721646Z"}}